Location: Blue Pit
(43.1414°N, 93.2208°W)
Time: 23:37:19
(UTC+00:00)

Cosmos 1484 Rocket - Pass Details

Date: 18 November 2025
Orbit: 442 x 473 km, 97.6° (Epoch: 14 December)

Event Time Altitude Azimuth Distance (km) Brightness Sun altitude
Rises 12:08:54 0° 9° (N) 2,533 6.1 -11.2°
Reaches altitude 10° 12:10:59 10° 6° (N) 1,647 5.1 -10.8°
Maximum altitude 12:14:29 63° 285° (WNW) 531 2.4 -10.2°
Drops below altitude 10° 12:17:55 10° 204° (SSW) 1,616 5.1 -9.6°
Sets 12:19:57 0° 201° (SSW) 2,481 6.1 -9.3°
